Weather History for Grayling, MI

Change the Weather History Date:

Friday, October 18, 2013

  Actual Average (KHTL) Record (KHTL)
Temperature  
Mean Temperature 44 °F 45 °F  
Max Temperature 58 °F 55 °F 82 °F (1947)
Min Temperature 31 °F 35 °F 16 °F (1948)
Degree Days  
Heating Degree Days 20 20  
Month to date heating degree days 307  
Since 1 July heating degree days 688  
Cooling Degree Days 0 0  
Month to date cooling degree days 0  
Year to date cooling degree days 285  
Moisture  
Dew Point 40 °F    
Average Humidity 86    
Maximum Humidity 100    
Minimum Humidity 54    
Precipitation  
Precipitation 0.00 in 0.09 in 1.19 in (1923)
Month to date precipitation 1.54  
Year to date precipitation 23.76  
Snow  
Snow 0.00 in 0.10 in 2.50 in (1943)
Month to date snowfall 0.2  
Since 1 July snowfall 0.2  
Snow Depth -    
Sea Level Pressure  
Sea Level Pressure 29.79 in    
Wind  
Wind Speed 4 mph (SW)    
Max Wind Speed 12 mph    
Max Gust Speed 22 mph    
Visibility 9 miles    
Events Rain    
T = Trace of Precipitation, MM = Missing Value Source: NWS Daily Summary

Daily Weather History Graph

Daily Weather History Graph

Search for Another Location

Airport:

Trip Planner

Search our weather history database for the weather conditions in past years. The results will help you decide how hot, cold, wet, or windy it might be!

Date:

Astronomy

Oct. 18, 2013 Rise Set
Actual Time 7:58 AM EDT 6:48 PM EDT
Civil Twilight 7:28 AM EDT 7:18 PM EDT
Nautical Twilight 6:54 AM EDT 7:52 PM EDT
Astronomical Twilight 6:21 AM EDT 8:25 PM EDT
Moon 6:37 PM EDT (10/18) 7:33 AM EDT (10/18)
Length of Visible Light 11h 49m
Length of Day
10h 50m
Full, 100% of the Moon is Illuminated
Oct 18
Full
Oct 18
Full
Oct 26
Last Quarter
Nov 3
New
Nov 10
First Quarter

Hourly Weather History & Observations

Time (EDT) Temp. Windchill Dew Point Humidity Pressure Visibility Wind Dir Wind Speed Gust Speed Precip Events Conditions
12:14 AM 40.8 °F - 40.8 °F 100% 29.76 in 10.0 mi Calm Calm - N/A   Clear
12:35 AM 39.4 °F 37.2 °F 39.4 °F 100% 29.76 in 7.0 mi WSW 3.5 mph - N/A   Clear
12:55 AM 39.4 °F 37.2 °F 39.4 °F 100% 29.77 in 10.0 mi WSW 3.5 mph - N/A   Clear
1:14 AM 38.3 °F 35.9 °F 38.3 °F 100% 29.76 in 5.0 mi WSW 3.5 mph - N/A   Clear
1:35 AM 38.3 °F 35.9 °F 38.3 °F 100% 29.77 in 7.0 mi WSW 3.5 mph - N/A   Clear
1:55 AM 38.3 °F 35.9 °F 38.3 °F 100% 29.77 in 7.0 mi WSW 3.5 mph - N/A   Clear
2:14 AM 38.3 °F 35.9 °F 38.3 °F 100% 29.77 in 10.0 mi WSW 3.5 mph - N/A   Clear
2:35 AM 38.3 °F 35.9 °F 38.3 °F 100% 29.77 in 10.0 mi WSW 3.5 mph - N/A   Clear
2:55 AM 38.3 °F 35.9 °F 38.3 °F 100% 29.77 in 10.0 mi WSW 3.5 mph - N/A   Clear
3:15 AM 36.5 °F 31.8 °F 36.5 °F 100% 29.77 in 10.0 mi West 5.8 mph - N/A   Clear
3:35 AM 36.5 °F 31.8 °F 36.5 °F 100% 29.77 in 10.0 mi WSW 5.8 mph - N/A   Clear
3:54 AM 36.1 °F 32.3 °F 36.1 °F 100% 29.76 in 10.0 mi WSW 4.6 mph - N/A   Clear
4:15 AM 33.8 °F - 33.8 °F 100% 29.77 in 7.0 mi Calm Calm - N/A   Clear
4:35 AM 33.3 °F - 33.3 °F 100% 29.77 in 1.2 mi Calm Calm - N/A   Mist
4:54 AM 33.3 °F - 33.3 °F 100% 29.77 in 1.0 mi Calm Calm - N/A   Mist
5:15 AM 33.3 °F - 33.3 °F 100% 29.77 in 5.0 mi Calm Calm - N/A   Clear
5:35 AM 33.3 °F - 33.3 °F 100% 29.77 in 3.0 mi Calm Calm - N/A   Clear
5:54 AM 33.3 °F - 33.3 °F 100% 29.77 in 2.5 mi Calm Calm - N/A   Scattered Clouds
6:15 AM 31.5 °F - 31.5 °F 100% 29.76 in 2.0 mi Calm Calm - N/A   Mostly Cloudy
6:35 AM 31.1 °F - 31.1 °F 100% 29.77 in 7.0 mi Calm Calm - N/A   Mostly Cloudy
6:54 AM 32.9 °F - 32.9 °F 100% 29.77 in 10.0 mi Calm Calm - N/A   Overcast
7:15 AM 33.1 °F - 33.1 °F 100% 29.77 in 10.0 mi Calm Calm - N/A   Scattered Clouds
7:35 AM 31.5 °F - 31.5 °F 100% 29.77 in 10.0 mi Calm Calm - N/A   Clear
7:54 AM 33.3 °F - 33.3 °F 100% 29.78 in 7.0 mi Calm Calm - N/A   Clear
8:15 AM 33.3 °F - 33.3 °F 100% 29.78 in 3.0 mi Calm Calm - N/A   Clear
8:35 AM 33.3 °F - 33.3 °F 100% 29.79 in 5.0 mi Calm Calm - N/A   Clear
8:54 AM 33.3 °F - 33.3 °F 100% 29.79 in 10.0 mi Calm Calm - N/A   Clear
9:15 AM 36.1 °F - 36.1 °F 100% 29.80 in 7.0 mi Calm Calm - N/A   Clear
9:35 AM 41.4 °F - 41.4 °F 100% 29.80 in 7.0 mi Calm Calm - N/A   Clear
9:54 AM 43.9 °F 41.3 °F 43.3 °F 98% 29.80 in 10.0 mi SW 4.6 mph - N/A   Scattered Clouds
10:15 AM 47.5 °F - 45.7 °F 93% 29.80 in 10.0 mi SW 4.6 mph - N/A   Mostly Cloudy
10:35 AM 48.4 °F - 44.8 °F 87% 29.80 in 10.0 mi SW 6.9 mph - N/A   Overcast
10:54 AM 48.7 °F - 43.9 °F 83% 29.81 in 10.0 mi SW 8.1 mph - N/A   Overcast
11:15 AM 48.7 °F - 43.5 °F 82% 29.80 in 10.0 mi SW 6.9 mph - N/A   Overcast
11:35 AM 48.4 °F - 43.3 °F 83% 29.81 in 10.0 mi SW 6.9 mph - N/A   Overcast
11:54 AM 48.6 °F - 43.2 °F 82% 29.81 in 10.0 mi SW 4.6 mph - N/A   Overcast
12:15 PM 50.5 °F - 45.0 °F 81% 29.81 in 10.0 mi SW 4.6 mph - N/A   Overcast
12:34 PM 50.0 °F - 44.6 °F 82% 29.81 in 10.0 mi SSW 5.8 mph - N/A   Overcast
12:55 PM 53.2 °F - 46.2 °F 77% 29.80 in 10.0 mi SW 8.1 mph - N/A   Overcast
1:15 PM 53.6 °F - 42.8 °F 67% 29.80 in 10.0 mi SW 6.9 mph - N/A   Mostly Cloudy
1:34 PM 53.6 °F - 42.6 °F 66% 29.79 in 10.0 mi SW 6.9 mph - N/A   Overcast
1:55 PM 53.6 °F - 42.3 °F 65% 29.78 in 10.0 mi WSW 6.9 mph - N/A   Mostly Cloudy
2:15 PM 55.9 °F - 41.0 °F 57% 29.77 in 10.0 mi West 6.9 mph - N/A   Mostly Cloudy
2:34 PM 55.9 °F - 40.1 °F 55% 29.77 in 10.0 mi SW 8.1 mph 16.1 mph N/A   Mostly Cloudy
2:55 PM 55.9 °F - 40.6 °F 56% 29.77 in 10.0 mi SSW 9.2 mph - N/A   Mostly Cloudy
3:14 PM 58.3 °F - 41.5 °F 54% 29.75 in 10.0 mi SW 10.4 mph - N/A   Mostly Cloudy
3:35 PM 55.9 °F - 39.4 °F 54% 29.75 in 10.0 mi SW 11.5 mph 17.3 mph N/A   Overcast
3:54 PM 54.0 °F - 39.4 °F 58% 29.76 in 10.0 mi WSW 8.1 mph - N/A   Mostly Cloudy
4:15 PM 54.3 °F - 41.0 °F 61% 29.76 in 10.0 mi WSW 3.5 mph - N/A   Scattered Clouds
4:35 PM 53.6 °F - 41.7 °F 64% 29.76 in 10.0 mi SW 6.9 mph 18.4 mph N/A   Light Drizzle
4:54 PM 54.5 °F - 41.9 °F 62% 29.77 in 10.0 mi WSW 9.2 mph 19.6 mph N/A   Scattered Clouds
5:15 PM 53.8 °F - 41.5 °F 63% 29.77 in 10.0 mi WSW 9.2 mph 17.3 mph N/A   Scattered Clouds
5:35 PM 53.6 °F - 41.2 °F 63% 29.77 in 10.0 mi WSW 8.1 mph 21.9 mph N/A   Scattered Clouds
5:54 PM 53.6 °F - 41.5 °F 64% 29.78 in 10.0 mi WSW 10.4 mph - N/A   Clear
6:15 PM 53.6 °F - 43.3 °F 68% 29.79 in 10.0 mi WSW 10.4 mph 16.1 mph N/A   Scattered Clouds
6:35 PM 50.9 °F - 41.7 °F 71% 29.79 in 10.0 mi West 6.9 mph - N/A   Scattered Clouds
6:54 PM 48.6 °F - 40.3 °F 73% 29.79 in 10.0 mi SW 5.8 mph - N/A   Scattered Clouds
7:15 PM 48.4 °F - 40.6 °F 75% 29.80 in 10.0 mi WSW 5.8 mph - N/A   Clear
7:35 PM 48.4 °F - 41.9 °F 78% 29.81 in 10.0 mi WSW 3.5 mph - N/A   Scattered Clouds
7:54 PM 48.4 °F - 42.8 °F 81% 29.81 in 10.0 mi Calm Calm - N/A   Mostly Cloudy
8:15 PM 48.4 °F - 43.9 °F 84% 29.81 in 10.0 mi WSW 6.9 mph - N/A   Overcast
8:34 PM 48.4 °F - 43.2 °F 82% 29.81 in 10.0 mi WSW 8.1 mph - N/A   Overcast
8:55 PM 48.4 °F - 43.9 °F 84% 29.82 in 10.0 mi SW 4.6 mph - N/A   Overcast
9:15 PM 48.4 °F - 44.2 °F 86% 29.82 in 10.0 mi SW 5.8 mph - N/A   Overcast
9:34 PM 48.4 °F - 44.2 °F 86% 29.82 in 10.0 mi SW 3.5 mph - N/A   Overcast
9:55 PM 48.4 °F - 45.7 °F 90% 29.82 in 10.0 mi SW 5.8 mph - N/A Rain Light Rain
10:15 PM 46.2 °F 45.0 °F 44.6 °F 94% 29.82 in 10.0 mi SW 3.5 mph - N/A Rain Light Rain
10:34 PM 45.9 °F 43.6 °F 44.6 °F 95% 29.81 in 10.0 mi SSW 4.6 mph - N/A   Overcast
10:55 PM 45.9 °F 44.6 °F 44.6 °F 95% 29.81 in 10.0 mi SSW 3.5 mph - N/A   Overcast
11:15 PM 45.9 °F 43.6 °F 44.8 °F 96% 29.81 in 10.0 mi SSW 4.6 mph - N/A   Overcast
11:34 PM 45.9 °F 42.9 °F 44.8 °F 96% 29.81 in 10.0 mi SW 5.8 mph - N/A   Mostly Cloudy
11:55 PM 45.9 °F 42.9 °F 44.8 °F 96% 29.80 in 10.0 mi SSW 5.8 mph - N/A   Overcast